| time (UTC) | temp F | wind direction | speed MPH | gust MPH | rain 1hr in | rain 24hr in | rain mn in | humidity % | barometer mb |
| 20260905073600 | 60 | 0 | 0.0 | 1.0 | 0.00 | 0.00 | 0.00 | 90 | 1009.0 |
| 20260905073103 | 60 | 0 | 0.0 | 1.0 | 0.00 | 0.00 | 0.00 | 90 | 1009.0 |
| 20260905072559 | 60 | 0 | 0.0 | 1.0 | 0.00 | 0.00 | 0.00 | 89 | 1008.9 |
| 20260905072103 | 60 | 0 | 0.0 | 1.0 | 0.00 | 0.00 | 0.00 | 89 | 1009.0 |
| 20260905071618 | 60 | 0 | 0.0 | 1.0 | 0.00 | 0.00 | 0.00 | 89 | 1009.0 |
| 20260905071101 | 61 | 0 | 0.0 | 0.0 | 0.00 | 0.00 | 0.00 | 88 | 1009.0 |
| 20260905070603 | 61 | 0 | 0.0 | 0.0 | 0.00 | 0.00 | 0.00 | 88 | 1009.0 |
| 20260905070105 | 61 | 0 | 0.0 | 0.0 | 0.00 | 0.00 | 0.00 | 88 | 1009.1 |
| 20260905065601 | 61 | 0 | 0.0 | 1.0 | 0.00 | 0.00 | 0.00 | 87 | 1009.2 |
| 20260905065100 | 62 | 0 | 0.0 | 1.0 | 0.00 | 0.00 | 0.00 | 87 | 1009.2 |
| 20260905064605 | 62 | 296 | 0.0 | 1.0 | 0.00 | 0.00 | 0.00 | 86 | 1009.5 |
| 20260905064103 | 62 | 0 | 0.0 | 1.0 | 0.00 | 0.00 | 0.00 | 86 | 1009.5 |
| 20260905063605 | 62 | 0 | 0.0 | 0.0 | 0.00 | 0.00 | 0.00 | 86 | 1009.5 |
| 20260905063105 | 62 | 0 | 0.0 | 0.0 | 0.00 | 0.00 | 0.00 | 86 | 1009.5 |
| 20260905062559 | 62 | 0 | 0.0 | 0.0 | 0.00 | 0.00 | 0.00 | 86 | 1009.5 |
| 20260905062101 | 62 | 0 | 0.0 | 0.0 | 0.00 | 0.00 | 0.00 | 87 | 1009.4 |
| 20260905061603 | 62 | 0 | 0.0 | 0.0 | 0.00 | 0.00 | 0.00 | 87 | 1009.6 |
| 20260905061100 | 62 | 0 | 0.0 | 0.0 | 0.00 | 0.00 | 0.00 | 87 | 1009.5 |
| 20260905060600 | 62 | 0 | 0.0 | 0.0 | 0.00 | 0.00 | 0.00 | 87 | 1009.6 |
| 20260905060107 | 62 | 0 | 0.0 | 0.0 | 0.00 | 0.00 | 0.00 | 86 | 1009.6 |
| 20260905055559 | 62 | 0 | 0.0 | 0.0 | 0.00 | 0.00 | 0.00 | 86 | 1009.6 |
| 20260905055104 | 63 | 0 | 0.0 | 0.0 | 0.00 | 0.00 | 0.00 | 86 | 1009.5 |
| 20260905054606 | 63 | 0 | 0.0 | 0.0 | 0.00 | 0.00 | 0.00 | 86 | 1009.5 |
| 20260905054100 | 63 | 0 | 0.0 | 0.0 | 0.00 | 0.00 | 0.00 | 86 | 1009.5 |
| 20260905053559 | 63 | 0 | 0.0 | 0.0 | 0.00 | 0.00 | 0.00 | 87 | 1009.5 |
| 20260905053105 | 63 | 0 | 0.0 | 0.0 | 0.00 | 0.00 | 0.00 | 87 | 1009.4 |
| 20260905052603 | 63 | 0 | 0.0 | 0.0 | 0.00 | 0.00 | 0.00 | 87 | 1009.4 |
| 20260905052100 | 63 | 0 | 0.0 | 0.0 | 0.00 | 0.00 | 0.00 | 87 | 1009.6 |
| 20260905051606 | 63 | 0 | 0.0 | 0.0 | 0.00 | 0.00 | 0.00 | 87 | 1009.6 |
| 20260905051100 | 63 | 0 | 0.0 | 1.0 | 0.00 | 0.00 | 0.00 | 87 | 1009.6 |
| 20260905050600 | 63 | 0 | 0.0 | 2.0 | 0.00 | 0.00 | 0.00 | 87 | 1009.6 |
| 20260905050106 | 63 | 0 | 0.0 | 2.0 | 0.00 | 0.00 | 0.00 | 87 | 1009.6 |
| 20260905045559 | 63 | 248 | 0.0 | 2.0 | 0.00 | 0.00 | 0.00 | 87 | 1009.5 |
| 20260905045100 | 63 | 248 | 0.0 | 1.0 | 0.00 | 0.00 | 0.00 | 88 | 1009.5 |
| 20260905044603 | 63 | 0 | 0.0 | 1.0 | 0.00 | 0.00 | 0.00 | 88 | 1009.6 |
| 20260905044059 | 63 | 0 | 0.0 | 1.0 | 0.00 | 0.00 | 0.00 | 87 | 1009.5 |
| 20260905043603 | 63 | 0 | 0.0 | 1.0 | 0.00 | 0.00 | 0.00 | 87 | 1009.5 |
| 20260905043102 | 63 | 0 | 0.0 | 0.0 | 0.00 | 0.00 | 0.00 | 86 | 1009.6 |
| 20260905042559 | 63 | 0 | 0.0 | 0.0 | 0.00 | 0.00 | 0.00 | 86 | 1009.5 |
| 20260905042059 | 64 | 0 | 0.0 | 1.0 | 0.00 | 0.00 | 0.00 | 85 | 1009.5 |
| 20260905041621 | 64 | 0 | 0.0 | 2.0 | 0.00 | 0.00 | 0.00 | 85 | 1009.5 |
| 20260905041059 | 64 | 0 | 0.0 | 2.0 | 0.00 | 0.00 | 0.00 | 86 | 1009.6 |
| 20260905040600 | 64 | 0 | 0.0 | 1.0 | 0.00 | 0.00 | 0.00 | 85 | 1009.6 |
| 20260905040125 | 64 | 0 | 0.0 | 2.0 | 0.00 | 0.00 | 0.00 | 85 | 1009.5 |
| 20260905035559 | 64 | 213 | 0.0 | 2.0 | 0.00 | 0.00 | 0.00 | 86 | 1009.5 |
| 20260905035059 | 64 | 0 | 0.0 | 4.0 | 0.00 | 0.00 | 0.00 | 85 | 1009.5 |
| 20260905034616 | 64 | 0 | 0.0 | 4.0 | 0.00 | 0.00 | 0.00 | 84 | 1009.5 |
| 20260905034059 | 64 | 0 | 0.0 | 2.0 | 0.00 | 0.00 | 0.00 | 83 | 1009.5 |
| 20260905033600 | 64 | 0 | 0.0 | 2.0 | 0.00 | 0.00 | 0.00 | 84 | 1009.4 |
| 20260905033115 | 65 | 241 | 0.0 | 2.0 | 0.00 | 0.00 | 0.00 | 84 | 1009.5 |
| 20260905032600 | 65 | 0 | 0.0 | 2.0 | 0.00 | 0.00 | 0.00 | 85 | 1009.4 |
| 20260905032059 | 65 | 240 | 0.0 | 1.0 | 0.00 | 0.00 | 0.00 | 85 | 1009.5 |
| 20260905031604 | 65 | 0 | 0.0 | 1.0 | 0.00 | 0.00 | 0.00 | 85 | 1009.6 |
| 20260905031100 | 65 | 0 | 0.0 | 2.0 | 0.00 | 0.00 | 0.00 | 85 | 1009.6 |
| 20260905030559 | 65 | 225 | 0.0 | 2.0 | 0.00 | 0.00 | 0.00 | 85 | 1009.6 |
| 20260905030105 | 65 | 225 | 0.0 | 2.0 | 0.00 | 0.00 | 0.00 | 86 | 1009.6 |
| 20260905025601 | 65 | 236 | 0.0 | 2.0 | 0.00 | 0.00 | 0.00 | 85 | 1009.5 |
| 20260905025100 | 65 | 0 | 0.0 | 0.0 | 0.00 | 0.00 | 0.00 | 86 | 1009.4 |
| 20260905024605 | 65 | 0 | 0.0 | 0.0 | 0.00 | 0.00 | 0.00 | 85 | 1009.4 |
| 20260905024100 | 65 | 0 | 0.0 | 2.0 | 0.00 | 0.00 | 0.00 | 84 | 1009.5 |
| 20260905023600 | 65 | 0 | 0.0 | 2.0 | 0.00 | 0.00 | 0.00 | 84 | 1009.5 |
| 20260905023109 | 65 | 0 | 0.0 | 2.0 | 0.00 | 0.00 | 0.00 | 85 | 1009.6 |
| 20260905022559 | 65 | 0 | 0.0 | 1.0 | 0.00 | 0.00 | 0.00 | 85 | 1009.6 |
| 20260905022059 | 66 | 0 | 0.0 | 2.0 | 0.00 | 0.00 | 0.00 | 85 | 1009.5 |
| 20260905021603 | 66 | 0 | 0.0 | 2.0 | 0.00 | 0.00 | 0.00 | 85 | 1009.6 |
| 20260905021059 | 66 | 0 | 0.0 | 0.0 | 0.00 | 0.00 | 0.00 | 85 | 1009.7 |
| 20260905020600 | 66 | 0 | 0.0 | 0.0 | 0.00 | 0.00 | 0.00 | 85 | 1009.7 |
| 20260905020104 | 66 | 0 | 0.0 | 0.0 | 0.00 | 0.00 | 0.00 | 84 | 1009.7 |
| 20260905015600 | 66 | 0 | 0.0 | 0.0 | 0.00 | 0.00 | 0.00 | 84 | 1009.8 |
| 20260905015100 | 66 | 0 | 0.0 | 0.0 | 0.00 | 0.00 | 0.00 | 84 | 1009.8 |
| 20260905014619 | 67 | 0 | 0.0 | 0.0 | 0.00 | 0.00 | 0.00 | 83 | 1009.9 |
| 20260905014104 | 67 | 0 | 0.0 | 0.0 | 0.00 | 0.00 | 0.00 | 83 | 1010.0 |
| 20260905013559 | 67 | 0 | 0.0 | 0.0 | 0.00 | 0.00 | 0.00 | 83 | 1010.0 |
| 20260905013121 | 67 | 0 | 0.0 | 1.0 | 0.00 | 0.00 | 0.00 | 84 | 1010.0 |
| 20260905012600 | 67 | 0 | 0.0 | 1.0 | 0.00 | 0.00 | 0.00 | 84 | 1010.0 |
| 20260905012100 | 67 | 0 | 0.0 | 1.0 | 0.00 | 0.00 | 0.00 | 84 | 1010.0 |
| 20260905011603 | 67 | 0 | 0.0 | 1.0 | 0.00 | 0.00 | 0.00 | 84 | 1010.0 |
| 20260905011100 | 68 | 246 | 0.0 | 2.0 | 0.00 | 0.00 | 0.00 | 84 | 1010.0 |
| 20260905010600 | 68 | 0 | 0.0 | 2.0 | 0.00 | 0.00 | 0.00 | 83 | 1010.1 |
| 20260905010107 | 68 | 0 | 0.0 | 2.0 | 0.00 | 0.00 | 0.00 | 83 | 1009.9 |
| 20260905005600 | 68 | 0 | 0.0 | 1.0 | 0.00 | 0.00 | 0.00 | 82 | 1010.0 |
| 20260905005100 | 68 | 0 | 0.0 | 2.0 | 0.00 | 0.00 | 0.00 | 81 | 1010.0 |
| 20260905004705 | 69 | 0 | 0.0 | 2.0 | 0.00 | 0.00 | 0.00 | 81 | 1010.0 |
| 20260905004100 | 69 | 0 | 0.0 | 2.0 | 0.00 | 0.00 | 0.00 | 80 | 1009.9 |
| 20260905003600 | 69 | 252 | 0.0 | 0.0 | 0.00 | 0.00 | 0.00 | 79 | 1010.0 |
| 20260905003105 | 70 | 0 | 0.0 | 1.0 | 0.00 | 0.00 | 0.00 | 78 | 1009.8 |
| 20260905002601 | 70 | 0 | 0.0 | 2.0 | 0.00 | 0.00 | 0.00 | 78 | 1009.9 |
| 20260905002100 | 70 | 0 | 0.0 | 2.0 | 0.00 | 0.00 | 0.00 | 77 | 1009.8 |
| 20260905001608 | 70 | 82 | 0.0 | 0.0 | 0.00 | 0.00 | 0.00 | 77 | 1009.8 |
| 20260905001100 | 70 | 0 | 0.0 | 0.0 | 0.00 | 0.00 | 0.00 | 78 | 1009.5 |
| 20260905000600 | 70 | 0 | 0.0 | 0.0 | 0.00 | 0.00 | 0.00 | 78 | 1009.6 |
| 20260905000105 | 70 | 0 | 0.0 | 2.0 | 0.00 | 0.00 | 0.00 | 78 | 1009.5 |
| 20260904235601 | 70 | 0 | 0.0 | 2.0 | 0.00 | 0.00 | 0.00 | 79 | 1009.5 |
| 20260904235103 | 70 | 0 | 0.0 | 2.0 | 0.00 | 0.00 | 0.00 | 79 | 1009.5 |
| 20260904234610 | 70 | 0 | 0.0 | 0.0 | 0.00 | 0.00 | 0.00 | 78 | 1009.4 |
| 20260904234100 | 70 | 0 | 0.0 | 0.0 | 0.00 | 0.00 | 0.00 | 78 | 1009.3 |
| 20260904233600 | 71 | 0 | 0.0 | 0.0 | 0.00 | 0.00 | 0.00 | 77 | 1009.3 |
| 20260904233104 | 71 | 0 | 0.0 | 0.0 | 0.00 | 0.00 | 0.00 | 78 | 1009.2 |
| 20260904232600 | 71 | 0 | 0.0 | 0.0 | 0.00 | 0.00 | 0.00 | 78 | 1009.3 |
| 20260904232100 | 71 | 0 | 0.0 | 0.0 | 0.00 | 0.00 | 0.00 | 76 | 1009.2 |
| 20260904231601 | 71 | 0 | 0.0 | 0.0 | 0.00 | 0.00 | 0.00 | 77 | 1009.1 |
| 20260904231059 | 72 | 0 | 0.0 | 0.0 | 0.00 | 0.00 | 0.00 | 76 | 1009.0 |
| 20260904230600 | 72 | 0 | 0.0 | 0.0 | 0.00 | 0.00 | 0.00 | 75 | 1009.0 |
| 20260904230110 | 72 | 0 | 0.0 | 0.0 | 0.00 | 0.00 | 0.00 | 75 | 1009.0 |
| 20260904225603 | 72 | 0 | 0.0 | 0.0 | 0.00 | 0.00 | 0.00 | 75 | 1009.1 |
| 20260904225103 | 72 | 0 | 0.0 | 0.0 | 0.00 | 0.00 | 0.00 | 74 | 1009.0 |
| 20260904224606 | 72 | 0 | 0.0 | 0.0 | 0.00 | 0.00 | 0.00 | 73 | 1009.0 |
| 20260904224100 | 73 | 0 | 0.0 | 0.0 | 0.00 | 0.00 | 0.00 | 74 | 1009.0 |
| 20260904223600 | 73 | 0 | 0.0 | 0.0 | 0.00 | 0.00 | 0.00 | 72 | 1008.8 |
| 20260904223111 | 73 | 0 | 0.0 | 0.0 | 0.00 | 0.00 | 0.00 | 73 | 1009.0 |
| 20260904222559 | 73 | 0 | 0.0 | 0.0 | 0.00 | 0.00 | 0.00 | 73 | 1008.9 |
| 20260904222059 | 74 | 0 | 0.0 | 0.0 | 0.00 | 0.00 | 0.00 | 72 | 1008.9 |
| 20260904221606 | 74 | 0 | 0.0 | 0.0 | 0.00 | 0.00 | 0.00 | 71 | 1008.8 |
| 20260904221100 | 74 | 0 | 0.0 | 0.0 | 0.00 | 0.00 | 0.00 | 69 | 1008.8 |
| 20260904220602 | 75 | 0 | 0.0 | 0.0 | 0.00 | 0.00 | 0.00 | 67 | 1008.8 |
| 20260904220105 | 75 | 0 | 0.0 | 0.0 | 0.00 | 0.00 | 0.00 | 65 | 1008.8 |
| 20260904215600 | 76 | 0 | 0.0 | 0.0 | 0.00 | 0.00 | 0.00 | 65 | 1008.8 |
| 20260904215100 | 76 | 0 | 0.0 | 0.0 | 0.00 | 0.00 | 0.00 | 64 | 1008.7 |
| 20260904214612 | 76 | 0 | 0.0 | 0.0 | 0.00 | 0.00 | 0.00 | 63 | 1008.7 |
| 20260904214101 | 76 | 0 | 0.0 | 0.0 | 0.00 | 0.00 | 0.00 | 64 | 1008.8 |
| 20260904213600 | 77 | 0 | 0.0 | 6.0 | 0.00 | 0.00 | 0.00 | 62 | 1008.8 |
| 20260904213105 | 77 | 0 | 0.0 | 6.0 | 0.00 | 0.00 | 0.00 | 60 | 1008.7 |
| 20260904212600 | 77 | 274 | 1.0 | 4.0 | 0.00 | 0.00 | 0.00 | 62 | 1008.7 |
| 20260904212101 | 78 | 240 | 0.0 | 4.0 | 0.00 | 0.00 | 0.00 | 60 | 1008.7 |
| 20260904211603 | 79 | 221 | 1.0 | 4.0 | 0.00 | 0.00 | 0.00 | 57 | 1008.6 |
| 20260904211059 | 79 | 249 | 0.0 | 4.0 | 0.00 | 0.00 | 0.00 | 59 | 1008.5 |
| 20260904210600 | 80 | 223 | 1.0 | 6.0 | 0.00 | 0.00 | 0.00 | 56 | 1008.5 |
| 20260904210113 | 79 | 231 | 1.0 | 6.0 | 0.00 | 0.00 | 0.00 | 56 | 1008.5 |
| 20260904205600 | 80 | 253 | 2.0 | 7.0 | 0.00 | 0.00 | 0.00 | 59 | 1008.5 |
| 20260904205059 | 80 | 242 | 2.0 | 7.0 | 0.00 | 0.00 | 0.00 | 56 | 1008.5 |
| 20260904204613 | 81 | 229 | 1.0 | 7.0 | 0.00 | 0.00 | 0.00 | 55 | 1008.6 |
| 20260904204059 | 81 | 178 | 2.0 | 7.0 | 0.00 | 0.00 | 0.00 | 57 | 1008.5 |
| 20260904203600 | 81 | 244 | 1.0 | 5.0 | 0.00 | 0.00 | 0.00 | 54 | 1008.6 |
| 20260904203104 | 81 | 227 | 1.0 | 3.0 | 0.00 | 0.00 | 0.00 | 57 | 1008.6 |
| 20260904202603 | 80 | 0 | 1.0 | 3.0 | 0.00 | 0.00 | 0.00 | 58 | 1008.6 |
| 20260904202103 | 80 | 0 | 1.0 | 5.0 | 0.00 | 0.00 | 0.00 | 59 | 1008.7 |
| 20260904201603 | 80 | 0 | 1.0 | 5.0 | 0.00 | 0.00 | 0.00 | 59 | 1008.8 |
| 20260904201101 | 80 | 263 | 1.0 | 5.0 | 0.00 | 0.00 | 0.00 | 57 | 1008.8 |
| 20260904200603 | 81 | 301 | 2.0 | 5.0 | 0.00 | 0.00 | 0.00 | 56 | 1008.7 |
| 20260904200121 | 82 | 107 | 0.0 | 6.0 | 0.00 | 0.00 | 0.00 | 57 | 1008.6 |
| 20260904195559 | 81 | 213 | 1.0 | 6.0 | 0.00 | 0.00 | 0.00 | 58 | 1008.7 |
| 20260904195059 | 81 | 0 | 2.0 | 4.0 | 0.00 | 0.00 | 0.00 | 57 | 1008.7 |
| 20260904194612 | 82 | 283 | 1.0 | 7.0 | 0.00 | 0.00 | 0.00 | 56 | 1008.7 |
| 20260904194100 | 82 | 296 | 2.0 | 9.0 | 0.00 | 0.00 | 0.00 | 55 | 1008.6 |
| 20260904193600 | 82 | 244 | 1.0 | 9.0 | 0.00 | 0.00 | 0.00 | 58 | 1008.6 |
| 20260904193103 | 82 | 0 | 2.0 | 5.0 | 0.00 | 0.00 | 0.00 | 55 | 1008.7 |
| 20260904192601 | 82 | 225 | 1.0 | 5.0 | 0.00 | 0.00 | 0.00 | 57 | 1008.7 |
| 20260904192100 | 82 | 0 | 1.0 | 5.0 | 0.00 | 0.00 | 0.00 | 57 | 1008.6 |
| 20260904191607 | 82 | 236 | 1.0 | 4.0 | 0.00 | 0.00 | 0.00 | 62 | 1008.8 |
| 20260904191100 | 82 | 355 | 0.0 | 8.0 | 0.00 | 0.00 | 0.00 | 58 | 1008.7 |
| 20260904190601 | 82 | 317 | 1.0 | 8.0 | 0.00 | 0.00 | 0.00 | 60 | 1008.8 |
| 20260904190106 | 81 | 262 | 1.0 | 4.0 | 0.00 | 0.00 | 0.00 | 58 | 1008.8 |
| 20260904185600 | 81 | 236 | 0.0 | 5.0 | 0.00 | 0.00 | 0.00 | 60 | 1008.7 |
| 20260904185103 | 81 | 0 | 1.0 | 5.0 | 0.00 | 0.00 | 0.00 | 63 | 1008.7 |
| 20260904184616 | 80 | 287 | 1.0 | 4.0 | 0.00 | 0.00 | 0.00 | 65 | 1008.7 |
| 20260904184101 | 79 | 0 | 0.0 | 4.0 | 0.00 | 0.00 | 0.00 | 63 | 1008.7 |
| 20260904183601 | 79 | 227 | 1.0 | 7.0 | 0.00 | 0.00 | 0.00 | 61 | 1008.7 |
| 20260904183102 | 80 | 0 | 1.0 | 7.0 | 0.00 | 0.00 | 0.00 | 59 | 1008.7 |
| 20260904182600 | 80 | 264 | 1.0 | 7.0 | 0.00 | 0.00 | 0.00 | 58 | 1008.8 |
| 20260904182100 | 80 | 313 | 2.0 | 6.0 | 0.00 | 0.00 | 0.00 | 60 | 1008.8 |
| 20260904181616 | 81 | 277 | 0.0 | 7.0 | 0.00 | 0.00 | 0.00 | 57 | 1008.8 |
| 20260904181100 | 82 | 231 | 1.0 | 7.0 | 0.00 | 0.00 | 0.00 | 61 | 1008.7 |
| 20260904180601 | 82 | 291 | 1.0 | 7.0 | 0.00 | 0.00 | 0.00 | 56 | 1008.7 |
| 20260904180104 | 82 | 180 | 2.0 | 8.0 | 0.00 | 0.00 | 0.00 | 56 | 1008.8 |
| 20260904175600 | 82 | 238 | 2.0 | 8.0 | 0.00 | 0.00 | 0.00 | 57 | 1008.8 |
| 20260904175103 | 82 | 90 | 1.0 | 6.0 | 0.00 | 0.00 | 0.00 | 59 | 1008.9 |
| 20260904174608 | 82 | 286 | 2.0 | 6.0 | 0.00 | 0.00 | 0.00 | 63 | 1008.8 |
| 20260904174100 | 81 | 203 | 1.0 | 9.0 | 0.00 | 0.00 | 0.00 | 57 | 1008.8 |
| 20260904173600 | 82 | 111 | 2.0 | 9.0 | 0.00 | 0.00 | 0.00 | 57 | 1008.9 |
| 20260904173107 | 81 | 298 | 2.0 | 6.0 | 0.00 | 0.00 | 0.00 | 61 | 1009.0 |
| 20260904172600 | 81 | 330 | 1.0 | 6.0 | 0.00 | 0.00 | 0.00 | 61 | 1009.1 |
| 20260904172101 | 81 | 283 | 2.0 | 5.0 | 0.00 | 0.00 | 0.00 | 61 | 1009.1 |
| 20260904171621 | 81 | 281 | 2.0 | 7.0 | 0.00 | 0.00 | 0.00 | 60 | 1009.1 |
| 20260904171059 | 81 | 292 | 2.0 | 7.0 | 0.00 | 0.00 | 0.00 | 63 | 1009.0 |
| 20260904170559 | 80 | 360 | 2.0 | 7.0 | 0.00 | 0.00 | 0.00 | 61 | 1009.1 |
| 20260904165601 | 78 | 210 | 1.0 | 3.0 | 0.00 | 0.00 | 0.00 | 64 | 1009.2 |
| 20260904165101 | 79 | 300 | 1.0 | 6.0 | 0.00 | 0.00 | 0.00 | 63 | 1009.3 |
| 20260904164618 | 81 | 0 | 1.0 | 6.0 | 0.00 | 0.00 | 0.00 | 62 | 1009.3 |
| 20260904164101 | 81 | 273 | 2.0 | 7.0 | 0.00 | 0.00 | 0.00 | 61 | 1009.3 |
| 20260904163600 | 80 | 20 | 1.0 | 7.0 | 0.00 | 0.00 | 0.00 | 64 | 1009.4 |
| 20260904163107 | 79 | 273 | 2.0 | 7.0 | 0.00 | 0.00 | 0.00 | 63 | 1009.3 |
| 20260904162600 | 79 | 239 | 1.0 | 6.0 | 0.00 | 0.00 | 0.00 | 65 | 1009.4 |
| 20260904162101 | 79 | 269 | 2.0 | 7.0 | 0.00 | 0.00 | 0.00 | 65 | 1009.4 |
| 20260904161615 | 79 | 325 | 2.0 | 7.0 | 0.00 | 0.00 | 0.00 | 63 | 1009.5 |
| 20260904161059 | 79 | 301 | 0.0 | 5.0 | 0.00 | 0.00 | 0.00 | 65 | 1009.6 |
| 20260904160601 | 78 | 103 | 1.0 | 5.0 | 0.00 | 0.00 | 0.00 | 65 | 1009.5 |
| 20260904160103 | 78 | 274 | 1.0 | 7.0 | 0.00 | 0.00 | 0.00 | 67 | 1009.6 |
| 20260904155601 | 78 | 315 | 2.0 | 7.0 | 0.00 | 0.00 | 0.00 | 67 | 1009.7 |
| 20260904155100 | 78 | 240 | 1.0 | 7.0 | 0.00 | 0.00 | 0.00 | 66 | 1009.7 |
| 20260904154606 | 78 | 287 | 1.0 | 5.0 | 0.00 | 0.00 | 0.00 | 69 | 1009.8 |
| 20260904154100 | 77 | 254 | 1.0 | 5.0 | 0.00 | 0.00 | 0.00 | 69 | 1009.9 |
| 20260904153600 | 77 | 221 | 1.0 | 7.0 | 0.00 | 0.00 | 0.00 | 71 | 1009.9 |
| 20260904153113 | 76 | 337 | 1.0 | 7.0 | 0.00 | 0.00 | 0.00 | 71 | 1009.9 |
| 20260904152559 | 77 | 298 | 0.0 | 3.0 | 0.00 | 0.00 | 0.00 | 69 | 1009.9 |
| 20260904152059 | 77 | 290 | 1.0 | 4.0 | 0.00 | 0.00 | 0.00 | 69 | 1009.9 |
| 20260904151606 | 77 | 95 | 0.0 | 4.0 | 0.00 | 0.00 | 0.00 | 71 | 1009.9 |
| 20260904151100 | 77 | 0 | 0.0 | 4.0 | 0.00 | 0.00 | 0.00 | 71 | 1010.0 |
| 20260904150602 | 77 | 0 | 1.0 | 8.0 | 0.00 | 0.00 | 0.00 | 72 | 1010.0 |
| 20260904150106 | 77 | 0 | 2.0 | 8.0 | 0.00 | 0.00 | 0.00 | 72 | 1010.0 |
| 20260904145559 | 76 | 227 | 1.0 | 4.0 | 0.00 | 0.00 | 0.00 | 72 | 1010.1 |
| 20260904145059 | 76 | 0 | 0.0 | 4.0 | 0.00 | 0.00 | 0.00 | 73 | 1010.1 |
| 20260904144606 | 75 | 0 | 0.0 | 6.0 | 0.00 | 0.00 | 0.00 | 74 | 1010.1 |
| 20260904144058 | 75 | 299 | 1.0 | 9.0 | 0.00 | 0.00 | 0.00 | 75 | 1010.2 |
| 20260904143559 | 76 | 343 | 3.0 | 9.0 | 0.00 | 0.00 | 0.00 | 78 | 1010.2 |
| 20260904143107 | 77 | 132 | 1.0 | 3.0 | 0.00 | 0.00 | 0.00 | 75 | 1010.2 |
| 20260904142559 | 76 | 82 | 1.0 | 3.0 | 0.00 | 0.00 | 0.00 | 77 | 1010.2 |
| 20260904142059 | 76 | 0 | 1.0 | 4.0 | 0.00 | 0.00 | 0.00 | 77 | 1010.2 |
| 20260904141604 | 76 | 17 | 1.0 | 4.0 | 0.00 | 0.00 | 0.00 | 79 | 1010.3 |
| 20260904141059 | 76 | 65 | 0.0 | 2.0 | 0.00 | 0.00 | 0.00 | 80 | 1010.3 |
| 20260904140558 | 75 | 104 | 0.0 | 4.0 | 0.00 | 0.00 | 0.00 | 80 | 1010.3 |
| 20260904135558 | 75 | 9 | 1.0 | 4.0 | 0.00 | 0.00 | 0.00 | 84 | 1010.3 |
| 20260904135059 | 74 | 111 | 0.0 | 5.0 | 0.00 | 0.00 | 0.00 | 85 | 1010.3 |
| 20260904134605 | 74 | 0 | 0.0 | 5.0 | 0.00 | 0.00 | 0.00 | 87 | 1010.3 |
| 20260904134058 | 73 | 0 | 2.0 | 4.0 | 0.00 | 0.00 | 0.00 | 88 | 1010.4 |
| 20260904133601 | 73 | 0 | 0.0 | 0.0 | 0.00 | 0.00 | 0.00 | 91 | 1010.4 |
| 20260904133116 | 72 | 0 | 0.0 | 0.0 | 0.00 | 0.00 | 0.00 | 92 | 1010.4 |
| 20260904132601 | 71 | 0 | 0.0 | 0.0 | 0.00 | 0.00 | 0.00 | 93 | 1010.3 |
| 20260904132101 | 71 | 0 | 0.0 | 0.0 | 0.00 | 0.00 | 0.00 | 94 | 1010.4 |
| 20260904131612 | 70 | 0 | 0.0 | 0.0 | 0.00 | 0.00 | 0.00 | 94 | 1010.4 |
| 20260904131100 | 70 | 0 | 0.0 | 0.0 | 0.00 | 0.00 | 0.00 | 95 | 1010.4 |
| 20260904130600 | 69 | 0 | 0.0 | 0.0 | 0.00 | 0.00 | 0.00 | 95 | 1010.5 |
| 20260904130108 | 69 | 0 | 0.0 | 0.0 | 0.00 | 0.00 | 0.00 | 96 | 1010.5 |
| 20260904125600 | 69 | 0 | 0.0 | 0.0 | 0.00 | 0.00 | 0.00 | 96 | 1010.4 |
| 20260904125100 | 68 | 0 | 0.0 | 0.0 | 0.00 | 0.00 | 0.00 | 96 | 1010.4 |
| 20260904124605 | 68 | 0 | 0.0 | 0.0 | 0.00 | 0.00 | 0.00 | 96 | 1010.3 |
| 20260904124100 | 68 | 0 | 0.0 | 0.0 | 0.00 | 0.00 | 0.00 | 96 | 1010.3 |
| 20260904123558 | 68 | 0 | 0.0 | 0.0 | 0.00 | 0.00 | 0.00 | 96 | 1010.4 |
| 20260904123103 | 67 | 0 | 0.0 | 0.0 | 0.00 | 0.00 | 0.00 | 96 | 1010.4 |
| 20260904122601 | 67 | 0 | 0.0 | 0.0 | 0.00 | 0.00 | 0.00 | 96 | 1010.6 |
| 20260904122101 | 67 | 0 | 0.0 | 0.0 | 0.00 | 0.00 | 0.00 | 96 | 1010.5 |
| 20260904121608 | 67 | 0 | 0.0 | 0.0 | 0.00 | 0.00 | 0.00 | 96 | 1010.5 |
| 20260904121100 | 66 | 0 | 0.0 | 0.0 | 0.00 | 0.00 | 0.00 | 96 | 1010.5 |
| 20260904120559 | 66 | 0 | 0.0 | 0.0 | 0.00 | 0.00 | 0.00 | 96 | 1010.5 |
| 20260904115600 | 65 | 0 | 0.0 | 0.0 | 0.00 | 0.04 | 0.00 | 96 | 1010.5 |
| 20260904115100 | 65 | 0 | 0.0 | 0.0 | 0.00 | 0.04 | 0.00 | 96 | 1010.5 |
| 20260904114606 | 65 | 0 | 0.0 | 0.0 | 0.00 | 0.04 | 0.00 | 96 | 1010.4 |
| 20260904114100 | 64 | 0 | 0.0 | 0.0 | 0.00 | 0.04 | 0.00 | 96 | 1010.5 |
| 20260904113600 | 64 | 0 | 0.0 | 0.0 | 0.00 | 0.04 | 0.00 | 96 | 1010.4 |
| 20260904113101 | 64 | 0 | 0.0 | 0.0 | 0.00 | 0.04 | 0.00 | 96 | 1010.5 |
| 20260904112600 | 64 | 0 | 0.0 | 0.0 | 0.00 | 0.04 | 0.00 | 96 | 1010.5 |
| 20260904112100 | 64 | 0 | 0.0 | 0.0 | 0.00 | 0.04 | 0.00 | 96 | 1010.6 |
| 20260904111601 | 64 | 0 | 0.0 | 0.0 | 0.00 | 0.04 | 0.00 | 96 | 1010.5 |
| 20260904111100 | 64 | 0 | 0.0 | 0.0 | 0.00 | 0.04 | 0.00 | 96 | 1010.4 |
| 20260904110600 | 63 | 0 | 0.0 | 0.0 | 0.00 | 0.04 | 0.00 | 96 | 1010.4 |
| 20260904110101 | 63 | 0 | 0.0 | 0.0 | 0.00 | 0.04 | 0.00 | 96 | 1010.5 |
| 20260904105600 | 63 | 0 | 0.0 | 0.0 | 0.00 | 0.07 | 0.00 | 96 | 1010.5 |
| 20260904105100 | 63 | 0 | 0.0 | 0.0 | 0.00 | 0.07 | 0.00 | 96 | 1010.4 |
| 20260904104617 | 63 | 0 | 0.0 | 0.0 | 0.00 | 0.07 | 0.00 | 96 | 1010.4 |
| 20260904104100 | 63 | 0 | 0.0 | 0.0 | 0.00 | 0.07 | 0.00 | 96 | 1010.4 |
| 20260904103559 | 63 | 0 | 0.0 | 0.0 | 0.00 | 0.07 | 0.00 | 95 | 1010.3 |
| 20260904103102 | 63 | 0 | 0.0 | 0.0 | 0.00 | 0.07 | 0.00 | 95 | 1010.3 |
| 20260904102557 | 63 | 0 | 0.0 | 0.0 | 0.00 | 0.07 | 0.00 | 96 | 1010.3 |
| 20260904102100 | 63 | 0 | 0.0 | 0.0 | 0.00 | 0.07 | 0.00 | 96 | 1010.2 |
| 20260904101605 | 64 | 0 | 0.0 | 0.0 | 0.00 | 0.07 | 0.00 | 95 | 1010.2 |
| 20260904101100 | 64 | 0 | 0.0 | 0.0 | 0.00 | 0.07 | 0.00 | 95 | 1010.2 |
| 20260904100600 | 64 | 0 | 0.0 | 0.0 | 0.00 | 0.07 | 0.00 | 95 | 1010.1 |
| 20260904100118 | 64 | 0 | 0.0 | 0.0 | 0.00 | 0.07 | 0.00 | 95 | 1010.1 |
| 20260904095600 | 64 | 0 | 0.0 | 0.0 | 0.00 | 0.26 | 0.00 | 95 | 1010.0 |
| 20260904095100 | 64 | 0 | 0.0 | 0.0 | 0.00 | 0.26 | 0.00 | 95 | 1010.0 |
| 20260904094617 | 64 | 0 | 0.0 | 0.0 | 0.00 | 0.26 | 0.00 | 96 | 1010.0 |
| 20260904094100 | 64 | 0 | 0.0 | 0.0 | 0.00 | 0.26 | 0.00 | 96 | 1010.2 |
| 20260904093606 | 64 | 0 | 0.0 | 0.0 | 0.00 | 0.26 | 0.00 | 96 | 1010.2 |
| 20260904093114 | 64 | 0 | 0.0 | 0.0 | 0.00 | 0.26 | 0.00 | 96 | 1010.2 |
| 20260904092600 | 64 | 0 | 0.0 | 0.0 | 0.00 | 0.26 | 0.00 | 96 | 1010.2 |
| 20260904092100 | 64 | 0 | 0.0 | 0.0 | 0.00 | 0.26 | 0.00 | 95 | 1010.2 |
| 20260904091606 | 64 | 0 | 0.0 | 0.0 | 0.00 | 0.26 | 0.00 | 95 | 1010.2 |
| 20260904091059 | 64 | 0 | 0.0 | 0.0 | 0.00 | 0.26 | 0.00 | 95 | 1010.1 |
| 20260904090600 | 64 | 0 | 0.0 | 0.0 | 0.00 | 0.26 | 0.00 | 95 | 1010.1 |
| 20260904090103 | 64 | 0 | 0.0 | 0.0 | 0.00 | 0.26 | 0.00 | 95 | 1010.1 |
| 20260904085600 | 64 | 0 | 0.0 | 0.0 | 0.00 | 0.30 | 0.00 | 95 | 1010.1 |
| 20260904085100 | 64 | 0 | 0.0 | 0.0 | 0.00 | 0.30 | 0.00 | 95 | 1010.0 |
| 20260904084603 | 64 | 0 | 0.0 | 0.0 | 0.00 | 0.30 | 0.00 | 95 | 1010.2 |
| 20260904084057 | 64 | 0 | 0.0 | 0.0 | 0.00 | 0.30 | 0.00 | 95 | 1010.2 |
| 20260904083600 | 64 | 0 | 0.0 | 0.0 | 0.00 | 0.30 | 0.00 | 95 | 1010.2 |
| 20260904083105 | 64 | 0 | 0.0 | 0.0 | 0.00 | 0.30 | 0.00 | 95 | 1010.1 |
| 20260904082600 | 64 | 0 | 0.0 | 0.0 | 0.00 | 0.30 | 0.00 | 95 | 1010.2 |
| 20260904082059 | 64 | 0 | 0.0 | 0.0 | 0.00 | 0.30 | 0.00 | 95 | 1010.4 |
| 20260904081607 | 64 | 0 | 0.0 | 0.0 | 0.00 | 0.30 | 0.00 | 95 | 1010.3 |
| 20260904081100 | 64 | 0 | 0.0 | 0.0 | 0.00 | 0.30 | 0.00 | 95 | 1010.3 |
| 20260904080600 | 64 | 0 | 0.0 | 0.0 | 0.00 | 0.30 | 0.00 | 95 | 1010.2 |
| 20260904080140 | 64 | 0 | 0.0 | 0.0 | 0.00 | 0.30 | 0.00 | 95 | 1010.2 |
| 20260904075602 | 64 | 0 | 0.0 | 0.0 | 0.00 | 0.30 | 0.00 | 95 | 1010.2 |
| 20260904075100 | 64 | 0 | 0.0 | 0.0 | 0.00 | 0.30 | 0.00 | 95 | 1010.2 |
| 20260904074610 | 64 | 0 | 0.0 | 0.0 | 0.00 | 0.30 | 0.00 | 95 | 1010.3 |
| 20260904074100 | 64 | 0 | 0.0 | 0.0 | 0.00 | 0.30 | 0.00 | 95 | 1010.4 |